Weather History for KCSV - September, 2013

Change the Weather History Date:

Thursday, September 5, 2013

  Actual Average Record
Temperature  
Mean Temperature 68 °F 71 °F  
Max Temperature 81 °F 81 °F 99 °F (1954)
Min Temperature 55 °F 61 °F 45 °F (2010)
Degree Days  
Heating Degree Days 0    
Month to date heating degree days  
Since 1 July heating degree days  
Cooling Degree Days 3    
Month to date cooling degree days  
Year to date cooling degree days  
Growing Degree Days 18 (Base 50)    
Moisture  
Dew Point 57 °F    
Average Humidity 71    
Maximum Humidity 97    
Minimum Humidity 38    
Precipitation  
Precipitation 0.00 in 0.12 in 3.02 in (2011)
Month to date precipitation 0.60  
Year to date precipitation 38.72  
Sea Level Pressure  
Sea Level Pressure 30.16 in    
Wind  
Wind Speed 2 mph (NNE)    
Max Wind Speed 8 mph    
Max Gust Speed -    
Visibility 9 miles    
Events      
T = Trace of Precipitation, MM = Missing Value Source: NWS Daily Summary

Daily Weather History Graph

Daily Weather History Graph

Search for Another Location

Airport or City:

Trip Planner

Search our weather history database for the weather conditions in past years. The results will help you decide how hot, cold, wet, or windy it might be!

Date:

Astronomy

Sep. 05, 2013 Rise Set
Actual Time 6:15 AM CDT 7:01 PM CDT
Civil Twilight 5:49 AM CDT 7:27 PM CDT
Nautical Twilight 5:18 AM CDT 7:58 PM CDT
Astronomical Twilight 4:47 AM CDT 8:29 PM CDT
Moon 6:24 AM CDT 6:56 PM CDT
Length of Visible Light 13h 38m
Length of Day
12h 46m
New Moon, 0% of the Moon is Illuminated
Sep 5
New Moon
Sep 12
First Quarter
Sep 19
Full
Sep 26
Last Quarter
Oct 4
New

Hourly Weather History & Observations

Time (CDT) Temp. Heat Index Dew Point Humidity Pressure Visibility Wind Dir Wind Speed Gust Speed Precip Events Conditions
12:53 AM 60.1 °F - 57.9 °F 93% 30.14 in 6.0 mi Calm Calm - N/A   Clear
1:53 AM 60.1 °F - 57.9 °F 93% 30.14 in 10.0 mi Calm Calm - N/A   Clear
2:53 AM 59.0 °F - 55.9 °F 90% 30.14 in 10.0 mi Calm Calm - N/A   Clear
3:53 AM 57.9 °F - 55.9 °F 93% 30.13 in 6.0 mi Calm Calm - N/A   Clear
4:53 AM 57.0 °F - 55.0 °F 93% 30.13 in 5.0 mi Calm Calm - N/A   Clear
5:53 AM 55.9 °F - 54.0 °F 93% 30.15 in 5.0 mi Calm Calm - N/A   Clear
6:53 AM 55.9 °F - 55.0 °F 97% 30.18 in 5.0 mi Calm Calm - N/A   Clear
7:53 AM 62.1 °F - 59.0 °F 90% 30.19 in 7.0 mi Calm Calm - N/A   Clear
8:53 AM 68.0 °F - 59.0 °F 73% 30.19 in 10.0 mi NNE 4.6 mph - N/A   Clear
9:53 AM 73.0 °F - 60.1 °F 64% 30.18 in 10.0 mi NE 4.6 mph - N/A   Clear
10:53 AM 75.0 °F - 59.0 °F 57% 30.18 in 10.0 mi NNE 6.9 mph - N/A   Clear
11:53 AM 77.0 °F - 59.0 °F 54% 30.19 in 10.0 mi Calm Calm - N/A   Clear
12:53 PM 79.0 °F - 55.9 °F 45% 30.18 in 10.0 mi North 6.9 mph - N/A   Clear
1:53 PM 79.0 °F - 55.9 °F 45% 30.17 in 10.0 mi Variable 4.6 mph - N/A   Clear
2:53 PM 81.0 °F 80.4 °F 53.1 °F 38% 30.16 in 10.0 mi Variable 6.9 mph - N/A   Clear
3:53 PM 81.0 °F 80.8 °F 55.9 °F 42% 30.14 in 10.0 mi NNW 8.1 mph - N/A   Clear
4:53 PM 80.1 °F 80.2 °F 55.9 °F 43% 30.14 in 10.0 mi North 4.6 mph - N/A   Clear
5:53 PM 78.1 °F - 57.0 °F 48% 30.15 in 10.0 mi NNE 4.6 mph - N/A   Clear
6:53 PM 73.9 °F - 57.0 °F 55% 30.15 in 10.0 mi Calm Calm - N/A   Clear
7:53 PM 71.1 °F - 57.9 °F 63% 30.16 in 10.0 mi North 3.5 mph - N/A   Clear
8:53 PM 64.9 °F - 59.0 °F 81% 30.17 in 10.0 mi Calm Calm - N/A   Clear
9:53 PM 64.9 °F - 59.0 °F 81% 30.18 in 10.0 mi Calm Calm - N/A   Clear
10:53 PM 64.9 °F - 60.1 °F 84% 30.17 in 10.0 mi Calm Calm - N/A   Clear
11:53 PM 64.0 °F - 60.1 °F 87% 30.17 in 9.0 mi Calm Calm - N/A   Clear